Location: Arcones
(41.1182°N, 3.7238°W)
Time: 19:41:07
(UTC+00:00)

YAOGAN 1 - Pass Details

Date: 22 March 2026
Orbit: 604 x 606 km, 97.8° (Epoch: 21 April)

Event Time Altitude Azimuth Distance (km) Brightness Sun altitude
Rises 19:21:37 0° 191° (S) 2,848 6.0 -10.6°
Reaches altitude 10° 19:24:00 10° 202° (SSW) 1,950 5.3 -11.1°
Maximum altitude 19:27:43 30° 264° (W) 1,105 4.7 -11.8°
Drops below altitude 10° 19:31:28 10° 325° (NW) 1,963 5.8 -12.5°
Sets 19:33:53 0° 337° (NNW) 2,871 6.5 -12.9°
